Location: St. Louis
(38.6270°N, 90.1994°W)
Time: 17:23:17
(UTC-06:00)

SR - All Passes

Search period start: 29 November 2021 00:00
Search period end: 09 December 2021 00:00
Orbit: 583 x 871 km, 66.7° (Epoch: 29 November)

Date Brightness Start Highest point End Pass type
(mag) Time Alt. Az. Time Alt. Az. Time Alt. Az.
29 Nov - 00:59:56 10° SW 01:04:18 38° WNW 01:08:26 10° NNE night (unlit)
29 Nov - 08:01:24 10° NNE 08:02:54 11° NE 08:04:24 10° ENE daylight
29 Nov - 09:41:03 10° NNW 09:45:23 81° WSW 09:50:00 10° SSE daylight
30 Nov - 00:09:39 10° SSW 00:14:24 85° WNW 00:18:51 10° NNE night (unlit)
30 Nov - 01:56:17 10° NW 01:57:00 10° NW 01:57:42 10° NW night (unlit)
30 Nov - 08:51:22 10° NNW 08:55:31 44° ENE 08:59:53 10° SE daylight
30 Nov - 10:34:23 10° WNW 10:37:11 17° WSW 10:40:04 10° SSW daylight
30 Nov - 23:20:10 10° S 23:24:37 41° ESE 23:28:49 10° NE night (unlit)
01 Dec - 01:03:18 10° W 01:06:44 20° NW 01:10:02 10° N night (unlit)
01 Dec - 08:02:08 10° N 08:05:29 21° NE 08:08:55 10° ESE daylight
01 Dec - 09:43:30 10° NW 09:47:33 37° WSW 09:51:49 10° S daylight
01 Dec - 22:31:42 10° SSE 22:34:58 19° ESE 22:38:05 10° ENE night (unlit)
02 Dec - 00:12:16 10° SW 00:16:41 41° WNW 00:20:51 10° NNE night (unlit)
02 Dec - 07:14:11 10° NNE 07:15:14 11° NE 07:16:17 10° ENE daylight
02 Dec - 08:53:25 10° NNW 08:57:47 88° WSW 09:02:24 10° SSE daylight
02 Dec - 23:22:04 10° SSW 23:26:47 88° ESE 23:31:13 10° NNE night (unlit)
03 Dec - 01:08:02 10° WNW 01:09:20 11° NW 01:10:37 10° NNW night (unlit)
03 Dec - 08:03:47 10° NNW 08:07:54 40° ENE 08:12:12 10° SE daylight
03 Dec - 09:46:34 10° WNW 09:49:36 18° WSW 09:52:45 10° SSW daylight
03 Dec - 22:32:40 10° S 22:37:01 38° ESE 22:41:07 10° NE night (unlit)
04 Dec - 00:15:32 10° WSW 00:19:05 22° NW 00:22:30 10° N night (unlit)
04 Dec - 07:14:37 10° N 07:17:50 20° NE 07:21:09 10° E daylight
04 Dec - 08:55:49 10° NW 08:59:56 41° WSW 09:04:19 10° S daylight
04 Dec - 21:44:23 10° SSE 21:47:23 17° ESE 21:50:15 10° ENE night (unlit)
04 Dec - 23:24:36 10° SW 23:29:03 45° WNW 23:33:16 10° NNE night (unlit)
05 Dec - 08:05:47 10° NNW 08:10:10 85° ENE 08:14:49 10° SSE daylight
05 Dec - 22:34:29 10° SSW 22:39:10 80° ESE 22:43:34 10° NNE night (unlit)
06 Dec - 00:19:58 10° WNW 00:21:40 12° NW 00:23:19 10° NNW night (unlit)
06 Dec - 07:16:12 10° NNW 07:20:16 37° ENE 07:24:32 10° SE daylight
06 Dec - 08:58:46 10° WNW 09:02:01 20° WSW 09:05:24 10° SSW daylight
06 Dec - 21:45:11 10° S 21:49:25 34° ESE 21:53:25 10° NE night (unlit)
06 Dec - 23:27:47 10° WSW 23:31:26 23° NW 23:34:58 10° N night (unlit)
07 Dec - 06:27:05 10° N 06:30:11 19° NE 06:33:21 10° E visible
07 Dec - 08:08:08 10° NW 08:12:20 45° WSW 08:16:48 10° S daylight
07 Dec - 20:57:06 10° SE 20:59:47 15° ESE 21:02:23 10° ENE night (unlit)
07 Dec - 22:36:56 10° SW 22:41:25 49° WNW 22:45:40 10° NNE night (unlit)
08 Dec - 07:18:09 10° NNW 07:22:33 78° ENE 07:27:13 10° SSE daylight
08 Dec - 21:46:54 10° SSW 21:51:34 73° ESE 21:55:55 10° NNE night (unlit)
08 Dec - 23:31:59 10° WNW 23:33:59 13° NW 23:35:57 10° NNW night (unlit)
